Date String (YYYY-MM-DD hh:mm:ss) UTC,Instrument flags,absolute air pressure of the measurement (hPa),sample flow rate (lpm),inlet stack bypass flow (lpm),air temperature of the measurement (°C),ambient temperature measured by the external sensor (°C),aerosol sample conditioner tube jacket temperature (°C),OPC LED temperature (°C),internal box temperature (°C),relative humidity of the measurement (%),span deviation,mass concentration of particles derived from Lorenz-Mie calculation of OPC scattering (μg/m³),mass concentration of particles derived from Lorenz-Mie calculation of OPC scattering (μg/m³),mass concentration of particles derived from Lorenz-Mie calculation of OPC scattering (μg/m³)
DateTimeUTC,F1_M11,P_M11,Q1_M11,Q2_M11,T1_M11,T2_M11,T3_M11,T4_M11,T5_M11,U1_M11,ZSPAN_M11,X0_M11,X2_M11,X1_M11
2023-09-11 20:00:00,SystemResetWarning,0837.4,5.01,000.00,028.3,026.0,000.0,036.8,029.8,31.6,-001.4,0011.17,0007.16,0006.82
2023-09-11 20:01:00,SystemResetWarning,0837.4,5.00,000.00,028.4,026.3,000.0,036.8,029.9,31.1,-001.3,0010.75,0007.10,0006.77
2023-09-11 20:02:00,SystemResetWarning,0837.4,5.00,000.00,028.4,026.6,000.0,036.8,029.9,31.2,-001.5,0010.61,0007.04,0006.72
2023-09-11 20:03:00,SystemResetWarning,0837.4,4.99,000.00,028.4,026.9,000.0,036.8,030.0,30.2,-001.3,0010.60,0006.99,0006.68
2023-09-11 20:04:00,SystemResetWarning,0837.5,5.00,000.00,028.4,027.1,000.0,036.8,030.0,31.6,-001.2,0010.53,0006.95,0006.65
2023-09-11 20:05:00,SystemResetWarning,0837.4,5.00,000.00,028.5,027.2,000.0,036.8,030.1,31.2,-001.3,0010.50,0006.95,0006.66
2023-09-11 20:06:00,SystemResetWarning,0837.4,5.00,000.00,028.5,027.4,000.0,036.9,030.2,31.0,-001.3,0010.53,0006.97,0006.69
2023-09-11 20:07:00,SystemResetWarning,0837.4,5.00,000.00,028.6,027.5,000.0,036.9,030.2,30.7,-001.0,0010.53,0007.00,0006.71
2023-09-11 20:08:00,SystemResetWarning,0837.4,4.99,000.00,028.6,027.6,000.0,036.9,030.3,30.9,-001.0,0010.59,0007.04,0006.73
2023-09-11 20:09:00,SystemResetWarning,0837.4,4.99,000.00,028.6,027.7,000.0,036.9,030.3,31.5,-000.6,0010.58,0007.07,0006.76
2023-09-11 20:10:00,SystemResetWarning,0837.4,5.00,000.00,028.7,027.8,000.0,036.9,030.3,31.1,-000.4,0010.55,0007.07,0006.75
2023-09-11 20:11:00,SystemResetWarning,0837.4,5.00,000.00,028.7,027.8,000.0,037.0,030.4,30.4,-000.4,0010.55,0007.06,0006.74
2023-09-11 20:12:00,SystemResetWarning,0837.4,5.00,000.00,028.8,027.9,000.0,037.0,030.5,29.8,-000.3,0010.63,0007.06,0006.73
2023-09-11 20:13:00,SystemResetWarning,0837.4,5.00,000.00,028.8,027.4,000.0,037.0,030.5,29.4,-000.2,0011.06,0007.03,0006.70
2023-09-11 20:14:00,SystemResetWarning,0837.4,4.99,000.00,028.7,025.6,000.0,036.9,030.1,29.8,-000.2,0011.02,0007.02,0006.68
2023-09-11 20:15:00,SystemResetWarning,0837.3,5.00,000.00,028.6,024.5,000.0,036.8,029.9,30.1,-000.4,0011.00,0006.99,0006.64
2023-09-11 20:16:00,SystemResetWarning,0837.2,5.01,000.00,028.5,024.4,000.0,036.8,029.8,30.5,-000.6,0010.97,0006.97,0006.62
2023-09-11 20:17:00,SystemResetWarning,0837.2,5.01,000.00,028.4,024.7,000.0,036.8,029.6,30.5,-000.8,0010.94,0006.94,0006.59
2023-09-11 20:18:00,SystemResetWarning,0837.3,4.99,000.00,028.4,025.1,000.0,036.8,029.6,30.2,-001.0,0010.93,0006.93,0006.59
2023-09-11 20:19:00,SystemResetWarning,0837.3,4.99,000.00,028.3,025.5,000.0,036.8,029.7,30.4,-000.7,0010.88,0006.92,0006.59
2023-09-11 20:20:00,SystemResetWarning,0837.3,5.00,000.00,028.3,025.9,000.0,036.8,029.8,30.2,-000.7,0010.83,0006.91,0006.58
2023-09-11 20:21:00,SystemResetWarning,0837.3,5.00,000.00,028.4,026.3,000.0,036.8,029.8,29.8,-000.9,0010.96,0006.94,0006.60
2023-09-11 20:22:00,SystemResetWarning,0837.3,5.01,000.00,028.4,026.6,000.0,036.8,029.9,30.0,-000.8,0010.96,0006.92,0006.60
2023-09-11 20:23:00,SystemResetWarning,0837.3,5.00,000.00,028.4,026.8,000.0,036.8,030.0,29.8,-000.8,0010.93,0006.89,0006.58
2023-09-11 20:24:00,SystemResetWarning,0837.2,5.00,000.00,028.4,027.0,000.0,036.8,030.1,29.9,-000.8,0010.95,0006.92,0006.61
2023-09-11 20:25:00,SystemResetWarning,0837.5,5.00,000.00,028.5,027.2,000.0,036.8,030.1,29.9,-001.0,0010.98,0006.95,0006.65
2023-09-11 20:26:00,SystemResetWarning,0837.2,5.00,000.00,028.5,027.3,000.0,036.8,030.2,30.1,-001.2,0011.03,0006.98,0006.68
2023-09-11 20:27:00,SystemResetWarning,0837.2,5.00,000.00,028.5,027.4,000.0,036.8,030.2,29.8,-001.0,0011.08,0006.98,0006.66
2023-09-11 20:28:00,SystemResetWarning,0837.2,5.00,000.00,028.6,027.5,000.0,036.9,030.3,30.2,-000.9,0011.14,0007.00,0006.67
2023-09-11 20:29:00,SystemResetWarning,0837.2,5.00,000.00,028.6,027.6,000.0,036.9,030.3,29.4,-000.7,0011.15,0006.97,0006.63
2023-09-11 20:30:00,SystemResetWarning,0837.2,5.00,000.00,028.7,027.7,000.0,036.9,030.4,29.5,-000.7,0011.19,0006.96,0006.59
2023-09-11 20:31:00,SystemResetWarning,0837.2,5.00,000.00,028.7,027.8,000.0,036.9,030.5,29.5,-000.8,0011.23,0006.96,0006.60
2023-09-11 20:32:00,SystemResetWarning,0837.2,5.00,000.00,028.7,027.8,000.0,036.9,030.5,29.7,-000.6,0011.14,0006.97,0006.61
2023-09-11 20:33:00,SystemResetWarning,0837.2,5.00,000.00,028.8,027.6,000.0,037.0,030.5,29.4,-000.5,0011.08,0006.97,0006.61
2023-09-11 20:34:00,SystemResetWarning,0837.2,4.99,000.00,028.8,026.1,000.0,036.9,030.2,29.3,-000.6,0011.13,0007.00,0006.62
2023-09-11 20:35:00,SystemResetWarning,0837.2,5.00,000.00,028.7,025.1,000.0,036.8,030.0,28.7,-000.9,0010.60,0006.98,0006.59
2023-09-11 20:36:00,SystemResetWarning,0837.1,5.01,000.00,028.6,025.0,000.0,036.8,029.9,28.4,-001.1,0010.55,0006.97,0006.57
2023-09-11 20:37:00,SystemResetWarning,0837.1,5.01,000.00,028.5,025.3,000.0,036.8,029.8,28.5,-001.1,0010.63,0006.95,0006.52
2023-09-11 20:38:00,SystemResetWarning,0837.0,5.00,000.00,028.5,025.7,000.0,036.8,029.8,28.8,-001.2,0010.52,0006.91,0006.48
2023-09-11 20:39:00,SystemResetWarning,0837.1,5.00,000.00,028.5,026.0,000.0,036.9,029.9,28.9,-001.3,0010.44,0006.85,0006.41
2023-09-11 20:40:00,SystemResetWarning,0837.0,5.00,000.00,028.5,026.4,000.0,036.9,029.9,29.2,-001.4,0010.34,0006.81,0006.37
2023-09-11 20:41:00,SystemResetWarning,0837.0,4.99,000.00,028.5,026.6,000.0,036.9,030.0,29.3,-001.5,0010.30,0006.80,0006.37
2023-09-11 20:42:00,SystemResetWarning,0837.0,5.00,000.00,028.5,026.9,000.0,036.9,030.1,29.0,-001.6,0010.24,0006.78,0006.37
2023-09-11 20:43:00,SystemResetWarning,0837.0,5.00,000.00,028.5,027.1,000.0,036.9,030.2,29.2,-001.9,0010.23,0006.76,0006.33
2023-09-11 20:44:00,SystemResetWarning,0837.0,5.00,000.00,028.6,027.3,000.0,036.9,030.2,30.3,-002.0,0010.20,0006.72,0006.30
2023-09-11 20:45:00,SystemResetWarning,0837.0,5.01,000.00,028.6,027.4,000.0,036.9,030.2,30.2,-002.2,0010.15,0006.67,0006.27
2023-09-11 20:46:00,SystemResetWarning,0837.0,5.00,000.00,028.6,027.5,000.0,036.9,030.3,29.7,-002.1,0010.15,0006.65,0006.24
2023-09-11 20:47:00,SystemResetWarning,0837.1,5.00,000.00,028.7,027.6,000.0,037.0,030.4,29.5,-001.7,0010.11,0006.62,0006.21
2023-09-11 20:48:00,SystemResetWarning,0837.1,5.00,000.00,028.7,027.7,000.0,037.0,030.4,29.0,-001.7,0010.00,0006.58,0006.18
2023-09-11 20:49:00,SystemResetWarning,0837.1,5.00,000.00,028.8,027.8,000.0,037.0,030.4,28.4,-001.7,0010.05,0006.58,0006.19
2023-09-11 20:50:00,SystemResetWarning,0837.1,4.98,000.00,028.8,027.0,000.0,037.0,030.3,28.2,-001.7,0010.05,0006.58,0006.21
2023-09-11 20:51:00,SystemResetWarning,0837.1,5.00,000.00,028.7,025.6,000.0,036.9,030.0,28.4,-001.8,0010.07,0006.55,0006.20
2023-09-11 20:52:00,SystemResetWarning,0837.0,5.01,000.00,028.7,025.1,000.0,036.9,030.0,28.8,-001.9,0010.10,0006.54,0006.19
2023-09-11 20:53:00,SystemResetWarning,0837.0,5.00,000.00,028.5,025.3,000.0,036.9,029.8,29.3,-001.8,0010.13,0006.53,0006.17
2023-09-11 20:54:00,SystemResetWarning,0836.9,5.00,000.00,028.5,025.6,000.0,036.9,029.8,29.9,-001.5,0010.11,0006.51,0006.15
2023-09-11 20:55:00,SystemResetWarning,0837.0,5.00,000.00,028.5,026.0,000.0,036.9,029.9,30.1,-001.7,0010.06,0006.48,0006.13
2023-09-11 20:56:00,SystemResetWarning,0837.0,5.00,000.00,028.5,026.3,000.0,036.9,029.9,30.3,-001.5,0010.21,0006.49,0006.13
2023-09-11 20:57:00,SystemResetWarning,0837.0,4.99,000.00,028.5,026.6,000.0,036.9,030.0,30.7,-001.3,0010.63,0006.50,0006.14
2023-09-11 20:58:00,SystemResetWarning,0836.9,4.99,000.00,028.5,026.9,000.0,036.9,030.1,29.7,-001.4,0010.71,0006.48,0006.13
2023-09-11 20:59:00,SystemResetWarning,0837.0,4.99,000.00,028.6,027.1,000.0,036.9,030.2,29.7,-001.1,0010.94,0006.50,0006.12
